[[{"header":{"parameterUnit":"m.s-1","parameterCategory":1,"la1":30.2991,"la2":30.254,"lo1":-89.0895,"lo2":-89.0444,"dy":0.0017,"dx":0.0017,"nx":28,"ny":28,"refTime":"2024-07-26T09:00:00:Z","depth":0,"parameterNumber":2,"parameterNumberName":"U-component_of_WINDS"},"data":[0,0,0,0,0,0,0,0,0,0,0,0,0,0,0,0,0,0,0,0,0,0,0,0,0,0,0,0,0,0,0,0,0,0,0,0,0,0,0,0,0,0,0,0,0,0,0,0,0,0,0,0,0,0,0,0,0,0,-3.5864,-3.5863,0,-3.5812,-3.5811,-3.581,-3.5676,-3.5673,-3.567,-3.5667,-3.5616,-3.5617,-3.5619,0,0,0,0,0,0,0,0,0,0,0,0,0,-3.5852,-3.5853,-3.5864,-3.5863,-3.5863,-3.5812,-3.5811,-3.581,-3.5676,-3.5673,-3.5669,-3.5666,-3.5616,-3.5617,-3.5619,0,0,0,0,0,0,0,0,0,0,0,0,0,-3.5834,-3.5853,-3.5864,-3.579,-3.5782,-3.5812,-3.5811,-3.581,-3.5677,-3.5673,-3.5669,-3.5665,-3.5615,-3.5617,-3.5619,-3.5717,0,0,-3.5625,-3.5626,0,0,0,0,0,0,0,0,-3.5835,-3.5835,-3.5801,-3.5795,-3.5787,-3.5746,-3.5788,-3.5779,-3.5678,-3.5717,-3.5667,-3.5662,-3.5663,-3.5661,-3.566,-3.5714,-3.5712,-3.5625,-3.5626,-3.5627,-3.5628,0,0,0,0,0,0,0,-3.5837,-3.5836,-3.5843,-3.5801,-3.5792,-3.576,-3.5753,-3.5785,-3.5715,-3.5713,-3.5704,-3.5699,-3.5658,-3.5659,-3.5658,-3.5711,-3.5625,-3.5627,-3.5628,-3.5629,-3.5845,-3.585,0,0,0,0,0,0,-3.5848,-3.5838,-3.5845,-3.5842,-3.5801,-3.5764,-3.5756,-3.5763,-3.5714,-3.5702,-3.5703,-3.5693,-3.5658,-3.5656,-3.5656,-3.5768,-3.5627,-3.5629,-3.563,-3.5841,-3.5846,-3.5851,0,0,0,0,0,0,-3.5848,-3.585,-3.5847,-3.5837,-3.5834,-3.5769,-3.5778,-3.5765,-3.5765,-3.5706,-3.5693,-3.5716,-3.5654,-3.5653,-3.5703,-3.5764,-3.563,-3.5632,-3.5835,-3.5843,-3.5849,-3.5992,0,0,0,0,0,0,-3.5849,-3.5851,-3.5886,-3.5839,-3.5835,-3.5894,-3.5782,-3.5767,-3.5768,-3.5755,-3.5715,-3.5704,-3.5651,-3.5701,-3.5705,-3.5764,-3.5633,-3.583,-3.5839,-3.5847,-3.5982,-3.6003,-3.6022,0,0,0,0,0,-3.5849,-3.5929,-3.5889,-3.589,-3.5878,-3.5898,-3.5896,-3.5832,-3.5774,-3.581,-3.5772,-3.5706,-3.5757,-3.5707,-3.5711,-3.5772,-3.5825,-3.5836,-3.5846,-3.5973,-3.5999,-3.6021,0,0,0,0,0,0,-3.5985,-3.5921,-3.5876,-3.5943,-3.5927,-3.5875,-3.5918,-3.5861,-3.5862,-3.5849,-3.5771,-3.5763,-3.5824,-3.5803,-3.5748,-3.5865,-3.5781,-3.5792,-3.5876,-3.59,-3.592,-3.5923,-3.5635,0,0,0,0,0,-3.6023,-3.6043,-3.5987,-3.6052,-3.6046,-3.5984,-3.599,-3.5943,-3.5923,-3.5916,-3.5881,-3.5866,-3.5878,-3.5888,-3.5897,-3.5979,-3.5969,-3.6023,-3.6043,-3.6059,-3.607,-3.6113,-3.6137,-3.5885,-3.5885,-3.5885,0,0,-3.6101,-3.6069,-3.6086,-3.6078,-3.606,-3.6084,-3.5979,-3.6008,-3.6026,-3.592,-3.5965,-3.594,-3.5918,-3.5985,-3.6012,-3.5969,-3.6138,-3.6073,-3.6086,-3.6088,-3.6126,-3.615,-3.6172,-3.5892,-3.5891,-3.589,0,0,-3.6256,-3.6234,-3.6285,-3.627,-3.6244,-3.6203,-3.6216,-3.6173,-3.6153,-3.6197,-3.6118,-3.6139,-3.6162,-3.6149,-3.6146,-3.63,-3.624,-3.6306,-3.6409,-3.6452,-3.6472,-3.6489,-3.6545,-3.6565,-3.6317,-3.6317,-3.6317,0,-3.6356,-3.6388,-3.6319,-3.6354,-3.6354,-3.626,-3.6313,-3.6301,-3.628,-3.6283,-3.6234,-3.6263,-3.6241,-3.6304,-3.6342,-3.6343,-3.6356,-3.6309,-3.6475,-3.6491,-3.6506,-3.6558,-3.6579,-3.6325,-3.6324,-3.6323,-3.6323,0,-3.6514,-3.6538,-3.6583,-3.6565,-3.657,-3.6614,-3.6553,-3.6566,-3.652,-3.6484,-3.6532,-3.6503,-3.6504,-3.6516,-3.647,-3.6574,-3.6548,-3.6489,-3.6402,-3.654,-3.6587,-3.6606,-3.6337,-3.6334,-3.6331,-3.6329,0,0,-3.675,-3.6695,-3.6713,-3.6704,-3.6671,-3.6688,-3.673,-3.6731,-3.6744,-3.6734,-3.6767,-3.6791,-3.6736,-3.6733,-3.6685,-3.6724,-3.6849,-3.6659,-3.6658,-3.6696,-3.6962,-3.7006,-3.703,-3.6809,-3.6813,-3.6815,-3.6964,0,-3.6895,-3.6961,-3.6901,-3.6979,-3.7001,-3.6914,-3.695,-3.6935,-3.6904,-3.6919,-3.6885,-3.6903,-3.6829,-3.6827,-3.6861,-3.6826,-3.6901,-3.6815,-3.684,-3.6841,-3.6847,-3.7055,-3.7101,-3.7242,-3.6982,-3.6985,-3.6987,0,-3.7073,-3.7071,-3.7151,-3.7114,-3.7121,-3.7155,-3.7152,-3.7168,-3.715,-3.7124,-3.7123,-3.7065,-3.7105,-3.7022,-3.7076,-3.7019,-3.7026,-3.7011,-3.7015,-3.7013,-3.6922,-3.7059,-3.7286,-3.7307,-3.7016,-3.7014,-3.7012,0,-3.7237,-3.7255,-3.7305,-3.7301,-3.7259,-3.7285,-3.7269,-3.7246,-3.7252,-3.7251,-3.7253,-3.7257,-3.7259,-3.7264,-3.7211,-3.7155,-3.7272,-3.7184,-3.7253,-3.7254,-3.7279,-3.7278,-3.751,-3.7286,-3.7286,-3.7286,-3.7285,0,-3.7405,-3.7457,-3.7379,-3.741,-3.7467,-3.7399,-3.7458,-3.7433,-3.7414,-3.744,-3.7366,-3.7392,-3.7319,-3.7339,-3.7297,-3.7349,-3.735,-3.7332,-3.732,-3.7338,-3.734,-3.734,-3.7328,-3.7291,-3.729,-3.7289,-3.7288,0,-3.7597,-3.7546,-3.7595,-3.7553,-3.7544,-3.7588,-3.7552,-3.7579,-3.7545,-3.7579,-3.7583,-3.7529,-3.7548,-3.7495,-3.7505,-3.7478,-3.7552,-3.7525,-3.7558,-3.755,-3.7621,-3.7615,-3.786,-3.7889,-3.7648,-3.765,-3.7652,0,-3.7706,-3.7745,-3.7707,-3.7719,-3.7707,-3.7727,-3.7733,-3.7669,-3.7678,-3.7662,-3.7692,-3.7705,-3.7711,-3.7746,-3.7708,-3.7717,-3.7689,-3.7774,-3.7689,-3.7707,-3.769,-3.7688,-3.7691,-3.7791,-3.7794,-3.7797,-3.7799,0,-3.7906,-3.788,-3.7891,-3.7894,-3.7903,-3.7902,-3.7896,-3.7911,-3.7843,-3.7858,-3.7876,-3.7881,-3.7893,-3.7907,-3.7908,-3.7892,-3.7835,-3.7826,-3.7842,-3.786,-3.7878,-3.7869,-3.7605,-3.782,-3.7818,-3.7816,-3.7815,-3.7814,-3.806,-3.809,-3.8069,-3.8084,-3.8074,-3.8071,-3.8095,-3.8065,-3.8079,-3.8083,-3.8046,-3.8073,-3.8056,-3.805,-3.8042,-3.8062,-3.8023,-3.8047,-3.8052,-3.8059,-3.8071,-3.7876,-3.8063,-3.8062,-3.8061,-3.8061,-3.806,0,-3.8255,-3.8238,-3.8253,-3.8248,-3.8261,-3.8207,-3.8198,-3.8213,-3.8237,-3.8226,-3.8235,-3.8257,-3.8271,-3.8236,-3.8245,-3.8269,-3.8243,-3.8273,-3.827,-3.8268,-3.8105,-3.809,-3.8294,-3.8294,-3.8294,-3.8294,-3.8294,-3.8294,-3.8359,-3.8408,-3.838,-3.8425,-3.8407,-3.8433,-3.8433,-3.8431,-3.8422,-3.845,-3.8462,-3.8439,-3.8419,-3.8426,-3.8437,-3.8427,-3.8433,-3.8473,-3.8454,-3.8302,-3.8279,-3.8257,-3.8243,-3.8475,-3.8476,-3.8614,-3.8615,-3.8616]},{"header":{"parameterUnit":"m.s-1","parameterCategory":1,"la1":30.2991,"la2":30.254,"lo1":-89.0895,"lo2":-89.0444,"dy":0.0017,"dx":0.0017,"nx":28,"ny":28,"refTime":"2024-07-26T09:00:00:Z","depth":0,"parameterNumber":3,"parameterNumberName":"V-component_of_WINDS"},"data":[0,0,0,0,0,0,0,0,0,0,0,0,0,0,0,0,0,0,0,0,0,0,0,0,0,0,0,0,0,0,0,0,0,0,0,0,0,0,0,0,0,0,0,0,0,0,0,0,0,0,0,0,0,0,0,0,0,0,1.0463,1.0463,0,1.044,1.044,1.0439,1.0431,1.0431,1.0432,1.0432,1.0406,1.0406,1.0405,0,0,0,0,0,0,0,0,0,0,0,0,0,1.05,1.0499,1.0463,1.0463,1.0462,1.044,1.044,1.0439,1.0431,1.0431,1.0432,1.0432,1.0407,1.0406,1.0405,0,0,0,0,0,0,0,0,0,0,0,0,0,1.0481,1.0499,1.0463,1.0456,1.0455,1.044,1.0439,1.0439,1.0431,1.0431,1.0432,1.0432,1.0407,1.0406,1.0405,1.0395,0,0,1.0401,1.0401,0,0,0,0,0,0,0,0,1.0482,1.048,1.0457,1.0456,1.0455,1.0439,1.0443,1.0424,1.0431,1.044,1.0432,1.0432,1.0417,1.0415,1.041,1.0394,1.0393,1.0401,1.0401,1.04,1.04,0,0,0,0,0,0,0,1.0483,1.048,1.0454,1.0457,1.0456,1.0454,1.0451,1.044,1.0428,1.0439,1.0439,1.0436,1.0416,1.0411,1.041,1.0392,1.0401,1.04,1.04,1.0399,1.0367,1.0367,0,0,0,0,0,0,1.0486,1.0482,1.0454,1.0453,1.0469,1.0453,1.045,1.0444,1.0428,1.0426,1.0436,1.0436,1.0413,1.0411,1.0409,1.0397,1.04,1.0399,1.0398,1.0368,1.0367,1.0367,0,0,0,0,0,0,1.0487,1.0484,1.0455,1.0467,1.0463,1.0452,1.0445,1.0443,1.0438,1.0426,1.0423,1.0433,1.0413,1.041,1.0399,1.0396,1.0398,1.0397,1.0368,1.0368,1.0367,1.0372,0,0,0,0,0,0,1.0488,1.0484,1.048,1.0467,1.0463,1.0446,1.0445,1.0443,1.0436,1.0436,1.0422,1.042,1.0413,1.04,1.0398,1.0394,1.0397,1.0368,1.0368,1.0367,1.0372,1.0372,1.0372,0,0,0,0,0,1.0489,1.0482,1.048,1.0477,1.0458,1.0446,1.0443,1.0436,1.0436,1.0432,1.0424,1.0421,1.0397,1.0399,1.0396,1.0392,1.0368,1.0368,1.0367,1.0372,1.0372,1.0372,0,0,0,0,0,0,1.0493,1.048,1.0478,1.0466,1.0457,1.0444,1.0439,1.0436,1.0426,1.0426,1.0417,1.0414,1.0403,1.0396,1.04,1.0382,1.0382,1.0381,1.0387,1.0386,1.0386,1.0388,1.0396,0,0,0,0,0,1.0493,1.0485,1.0473,1.0464,1.046,1.045,1.0444,1.044,1.043,1.0426,1.0417,1.0408,1.0399,1.0392,1.0383,1.0371,1.0368,1.0367,1.0367,1.0367,1.0366,1.036,1.036,1.0366,1.0366,1.0366,0,0,1.0492,1.0483,1.0478,1.0464,1.0457,1.0448,1.0447,1.0438,1.0431,1.0425,1.0413,1.0407,1.0396,1.0384,1.0379,1.0379,1.0364,1.0367,1.0367,1.0365,1.036,1.0359,1.0359,1.0366,1.0366,1.0366,0,0,1.0485,1.0478,1.047,1.0463,1.0452,1.0447,1.0445,1.0433,1.0429,1.0417,1.0413,1.0405,1.0388,1.0381,1.0375,1.0368,1.0364,1.0365,1.0364,1.0359,1.0358,1.0358,1.0355,1.0355,1.0364,1.0364,1.0364,0,1.0485,1.0472,1.0466,1.0457,1.0451,1.0446,1.0438,1.0432,1.0418,1.0414,1.0414,1.0395,1.0387,1.0374,1.0372,1.0368,1.0365,1.0366,1.0359,1.0358,1.0358,1.0355,1.0354,1.0365,1.0365,1.0364,1.0364,0,1.0472,1.0464,1.0458,1.0447,1.044,1.0432,1.0424,1.0419,1.0415,1.0409,1.0398,1.0389,1.0378,1.0375,1.0371,1.0362,1.0362,1.0361,1.036,1.0357,1.0355,1.0354,1.0365,1.0365,1.0365,1.0365,0,0,1.0466,1.0452,1.045,1.0446,1.0434,1.0427,1.0419,1.0409,1.0405,1.0396,1.0389,1.0376,1.0376,1.0369,1.0364,1.036,1.0355,1.0359,1.0358,1.0358,1.0345,1.0346,1.0345,1.0353,1.0353,1.0353,1.0346,0,1.0458,1.0443,1.0438,1.0426,1.0418,1.0414,1.0407,1.04,1.0395,1.0387,1.0381,1.0373,1.0372,1.0368,1.0363,1.0357,1.0352,1.0357,1.0346,1.0346,1.0348,1.0344,1.0344,1.0338,1.0345,1.0345,1.0345,0,1.0445,1.0438,1.0425,1.0417,1.0413,1.0407,1.0398,1.0391,1.0383,1.038,1.0373,1.0369,1.0361,1.0362,1.035,1.0354,1.0349,1.0346,1.0345,1.0343,1.0344,1.0341,1.0336,1.0335,1.0343,1.0343,1.0343,0,1.0442,1.0429,1.042,1.0416,1.0405,1.0401,1.0397,1.0389,1.0383,1.0376,1.0372,1.0364,1.0359,1.0352,1.0346,1.0348,1.0335,1.0336,1.0332,1.0332,1.0329,1.0329,1.0322,1.0327,1.0327,1.0327,1.0327,0,1.0433,1.0425,1.0418,1.0413,1.0404,1.0399,1.0391,1.0386,1.038,1.0373,1.0369,1.0363,1.0356,1.0349,1.0344,1.0336,1.0334,1.0331,1.0329,1.0331,1.0331,1.0327,1.0327,1.0327,1.0327,1.0327,1.0327,0,1.0427,1.0422,1.0412,1.0404,1.0401,1.0396,1.0388,1.0383,1.0379,1.037,1.0368,1.0361,1.0353,1.0347,1.0336,1.0333,1.0323,1.0322,1.0326,1.0326,1.0322,1.0323,1.0312,1.0311,1.0317,1.0317,1.0317,0,1.0421,1.0415,1.0407,1.0403,1.0398,1.0391,1.0387,1.0382,1.0377,1.0368,1.0364,1.0356,1.0349,1.0336,1.033,1.0322,1.032,1.0317,1.0319,1.0321,1.032,1.032,1.032,1.0317,1.0317,1.0317,1.0317,0,1.0411,1.0409,1.0403,1.0396,1.039,1.0384,1.0378,1.0375,1.0369,1.0364,1.0356,1.0351,1.0341,1.0333,1.0325,1.032,1.0317,1.0317,1.0315,1.0316,1.0319,1.0317,1.0325,1.0316,1.0316,1.0316,1.0316,1.0316,1.0405,1.04,1.0394,1.0387,1.0382,1.0377,1.0372,1.0368,1.0361,1.0353,1.0351,1.0343,1.0336,1.0325,1.032,1.0314,1.0314,1.0312,1.0311,1.0311,1.0311,1.032,1.0312,1.0312,1.0312,1.0312,1.0312,0,1.0394,1.0391,1.0385,1.0377,1.0372,1.0371,1.0365,1.0361,1.0354,1.0348,1.0342,1.0334,1.0327,1.0321,1.0313,1.0309,1.0308,1.0307,1.0307,1.0306,1.0311,1.0313,1.0309,1.0309,1.0309,1.0309,1.0309,1.0309,1.0388,1.038,1.0378,1.0368,1.0365,1.0357,1.0354,1.0349,1.0345,1.0336,1.0331,1.0327,1.0321,1.0314,1.0307,1.0306,1.0303,1.0303,1.0301,1.0305,1.0306,1.0306,1.0308,1.0302,1.0302,1.0296,1.0296,1.0296]}]]